Portada
METAR-TAF:

METAR-TAF

Aeroports :

Sparta, Wisconsin, Estats Units d'Amèrica

latitud: 43-57-30N, longitud: 090-44-16W, altitud: 255 m

Observació

L'informe es va fer fa 23 minuts, a les 03:55 UTC
Vent calma
Temperatura 17°C
Humitat 100%
Pressió 1018 hPa
Visibilitat: 0.4 km
Cel cobert a una alçada de 100 ft
boira

METAR: KCMY 180355Z AUTO 00000KT 1/4SM FG OVC001 17/17 A3006 RMK AO2 T01660166

Hora: 23:18 (04:18 UTC)


TAF: manca

Observacions i pronòstics meteorològics de més de 4000 aeroports (METAR i TAF).

Les estacions disponibles són els punts grocs i vermells al mapa.

Posi el ratolí al punt desitjat per veure el nom de l'estació.

Feu clic per veure les observacions i els pronòstics meteorològics.

Per canviar el mapa: feu clic els botons verds amb una creu de color negre per apropar; al botó verd amb un guió per allunyar la imatge; o en les fletxes verdes per a mapes adjacents.


METAR-TAF: